CW9742 Weather Reports


time (UTC)temp
C
wind
direction
speed
KPH
gust
KPH
rain 1hr
cm
rain 24hr
cm
rain mn
cm
humidity
%
barometer
mb
20260509021531 12 276 0.0 0.0 0.00 0.00 0.00 35 1006.5
20260509020029 12 276 0.0 0.0 0.00 0.00 0.00 34 1006.5
20260509014528 12 276 0.0 0.0 0.00 0.00 0.00 33 1006.5
20260509013038 13 276 0.0 0.0 0.00 0.00 0.00 32 1006.4
20260509011528 13 276 0.0 0.0 0.00 0.00 0.00 30 1006.4
20260509010027 14 276 0.0 0.0 0.00 0.00 0.00 28 1006.2
20260509004526 15 276 1.6 8.0 0.00 0.00 0.00 27 1006.1
20260509003026 15 309 1.6 4.8 0.00 0.00 0.00 25 1006.1
20260509001525 15 321 3.2 14.5 0.00 0.00 0.00 24 1006.1
20260509000024 16 282 3.2 8.0 0.00 0.00 0.00 24 1006.0
20260508234524 16 309 4.8 9.7 0.00 0.00 0.00 24 1006.0
20260508233024 17 300 8.0 14.5 0.00 0.00 0.00 23 1005.8
20260508231523 17 284 3.2 12.9 0.00 0.00 0.00 23 1005.7
20260508230121 17 275 8.0 14.5 0.00 0.00 0.00 21 1005.7
20260508224549 17 271 4.8 16.1 0.00 0.00 0.00 24 1005.6
20260508223030 17 270 8.0 17.7 0.00 0.00 0.00 23 1005.6
20260508221518 18 243 4.8 14.5 0.00 0.00 0.00 25 1005.8
20260508220017 18 275 8.0 16.1 0.00 0.00 0.00 27 1005.8
20260508214516 18 219 3.2 12.9 0.00 0.00 0.00 28 1005.8
20260508213015 18 225 1.6 11.3 0.00 0.00 0.00 28 1005.9
20260508211514 18 265 9.7 17.7 0.00 0.00 0.00 28 1006.1
20260508210011 18 294 8.0 16.1 0.00 0.00 0.00 28 1006.2
20260508204516 18 250 6.4 20.9 0.00 0.00 0.00 28 1006.3
20260508203007 18 304 8.0 14.5 0.00 0.00 0.00 26 1006.6
20260508201506 18 263 1.6 8.0 0.00 0.00 0.00 27 1006.8
20260508200001 18 274 6.4 14.5 0.00 0.00 0.00 27 1007.3
20260508194558 17 286 6.4 24.1 0.00 0.00 0.00 27 1007.5
20260508193128 17 269 9.7 17.7 0.00 0.00 0.00 29 1007.7
20260508191556 17 257 3.2 12.9 0.00 0.00 0.00 31 1008.0
20260508190054 17 169 3.2 9.7 0.00 0.00 0.00 29 1008.2
20260508184614 17 235 4.8 16.1 0.00 0.00 0.00 29 1008.4
20260508183056 17 291 0.0 0.0 0.00 0.00 0.00 28 1008.5
20260508181548 17 192 0.0 12.9 0.00 0.00 0.00 30 1008.8
20260508180053 16 300 0.0 9.7 0.00 0.00 0.00 29 1009.0
20260508174557 16 205 1.6 11.3 0.00 0.00 0.00 30 1009.2
20260508173040 16 268 4.8 14.5 0.00 0.00 0.00 29 1009.4
20260508171558 15 252 0.0 12.9 0.00 0.00 0.00 32 1009.8
20260508170040 16 296 9.7 19.3 0.00 0.00 0.00 31 1010.0
20260508164537 15 305 4.8 12.9 0.00 0.00 0.00 32 1010.2
20260508163034 15 205 1.6 14.5 0.00 0.00 0.00 34 1010.4
20260508161539 15 327 4.8 14.5 0.00 0.00 0.00 34 1010.3
20260508160033 15 279 3.2 17.7 0.00 0.00 0.00 32 1010.6
20260508154525 14 89 0.0 6.4 0.00 0.00 0.00 36 1010.7
20260508153033 14 236 3.2 8.0 0.00 0.00 0.00 44 1010.8
20260508151535 13 250 8.0 16.1 0.00 0.00 0.00 40 1010.8
20260508150023 13 282 0.0 0.0 0.00 0.00 0.00 36 1011.0
20260508144515 13 207 0.0 0.0 0.00 0.00 0.00 48 1011.1
20260508143011 12 150 0.0 0.0 0.00 0.00 0.00 49 1011.2
20260508141511 12 142 0.0 0.0 0.00 0.00 0.00 51 1011.4
20260508140004 11 136 0.0 0.0 0.00 0.00 0.00 54 1011.4
20260508134505 11 200 0.0 0.0 0.00 0.00 0.00 57 1011.5
20260508133112 10 171 0.0 11.3 0.00 0.00 0.00 59 1011.8
20260508131557 10 180 0.0 0.0 0.00 0.00 0.00 61 1011.8
20260508130050 8 199 0.0 0.0 0.00 0.00 0.00 64 1012.0
20260508124546 8 220 0.0 0.0 0.00 0.00 0.00 69 1011.9
20260508123043 7 241 0.0 0.0 0.00 0.00 0.00 77 1011.9
20260508121541 6 243 0.0 0.0 0.00 0.00 0.00 83 1011.7
20260508120043 5 243 0.0 0.0 0.00 0.00 0.00 89 1011.5
20260508114538 3 249 0.0 0.0 0.00 0.00 0.00 91 1011.4
20260508113044 2 306 0.0 0.0 0.00 0.00 0.00 90 1011.2
20260508111536 1 306 0.0 0.0 0.00 0.00 0.00 89 1011.1
20260508110034 1 306 0.0 0.0 0.00 0.00 0.00 87 1010.9
20260508104533 1 306 0.0 0.0 0.00 0.00 0.00 86 1010.9
20260508103034 2 306 0.0 0.0 0.00 0.00 0.00 86 1010.8
20260508101532 2 306 0.0 0.0 0.00 0.00 0.00 86 1010.8
20260508100028 2 306 0.0 0.0 0.00 0.00 0.00 85 1010.8
20260508094525 2 306 0.0 0.0 0.00 0.00 0.00 85 1010.9
20260508093023 3 306 0.0 0.0 0.00 0.00 0.00 84 1010.9
20260508091532 3 306 0.0 0.0 0.00 0.00 0.00 83 1010.9
20260508090018 3 306 0.0 0.0 0.00 0.00 0.00 82 1011.0
20260508084515 3 306 0.0 0.0 0.00 0.00 0.00 82 1010.9
20260508083024 4 306 0.0 0.0 0.00 0.00 0.00 81 1011.0
20260508081512 4 306 0.0 0.0 0.00 0.00 0.00 80 1011.0
20260508080010 5 306 0.0 0.0 0.00 0.00 0.00 79 1011.1
20260508074509 5 306 0.0 0.0 0.00 0.00 0.00 78 1011.1
20260508073009 5 306 0.0 0.0 0.00 0.00 0.00 78 1011.1
20260508071506 5 306 0.0 0.0 0.00 0.00 0.00 77 1011.1
20260508070006 5 306 0.0 0.0 0.00 0.00 0.00 76 1011.1
20260508064503 5 306 0.0 0.0 0.00 0.00 0.00 76 1011.2
20260508063001 5 306 0.0 0.0 0.00 0.00 0.00 76 1011.2
20260508061601 5 306 0.0 0.0 0.00 0.00 0.00 75 1011.4
20260508060059 5 306 0.0 0.0 0.00 0.00 0.00 74 1011.5
20260508054558 6 306 0.0 0.0 0.00 0.00 0.00 74 1011.5
20260508053102 6 306 0.0 0.0 0.00 0.00 0.00 72 1011.5
20260508051618 6 306 0.0 0.0 0.00 0.00 0.00 71 1011.4
20260508050052 6 306 0.0 0.0 0.00 0.00 0.00 70 1011.5
20260508044550 6 306 0.0 0.0 0.00 0.00 0.00 68 1011.2
20260508043047 6 306 0.0 0.0 0.00 0.00 0.00 67 1011.2
20260508041546 7 306 0.0 0.0 0.00 0.00 0.00 66 1011.0
20260508040042 7 306 0.0 0.0 0.00 0.00 0.00 65 1011.2
20260508034541 7 306 0.0 0.0 0.00 0.00 0.00 63 1011.0
20260508033048 8 298 0.0 0.0 0.00 0.00 0.00 64 1011.2
20260508031541 8 298 0.0 0.0 0.00 0.00 0.00 62 1011.0
20260508030045 8 298 0.0 0.0 0.00 0.00 0.00 63 1011.1
20260508024539 8 298 0.0 0.0 0.00 0.00 0.00 62 1011.0
20260508023038 9 298 0.0 0.0 0.00 0.00 0.00 62 1011.0